HST
1 20580U 90037B   25189.50492878  .00004213  00000-0  15337-3 0  9994
2 20580  28.4682 260.3985 0001848 339.8718  20.1803 15.25514129735947
ISS (ZARYA)
1 25544U 98067A   25190.02470325  .00008280  00000-0  15053-3 0  9995
2 25544  51.6358 198.8275 0002118 354.0350 217.6565 15.50447055518543
CXO
1 25867U 99040B   25190.59594014  .00000634  00000-0  00000-0 0  9997
2 25867  49.9420 128.7398 8385670 309.7762   0.7190  0.37799042 16035